Showing default

YAOGAN-43 02E, 60949

Orbit data source: Space-Track

YAOGAN-43 02E, 60949 is a payload satellite owned by PLA GAD (CN) in LEO that was launched on Tue, 03 Sep 2024 UTC via a CHANG ZHENG 4B launch vehicle from the Xichang Space Center, China (XSC). Payload-class satellites include a variety of spacecraft equipped with specific instruments for various scientific and technological missions. These include communications satellites like Starlink; space stations such as the ISS; scientific satellites like the Hubble; Earth observation satellites from companies like Planet Labs, Umbra, and HawkEye 360; GPS; miniature CubeSats for education and research; and military/defense satellites.

Loading next visibility...
Identifier
60949, 2024-156E
Orbit
LEO
Country
Flag of CNCN / PRC
Related business
Manufacturer
SAST
Mission
Operational Defense Communications
Bus & Motor
Unknown
Mass
~300 kg wet, ~300 kg dry
Launch date (UTC)
2024-09-03 (1 year ago)
Launch vehicle
CHANG ZHENG 4B
Launch site
Xichang Space Center, China (XSC)
Object type
Payload
Rocket body
Debris
Shape & HBR
Box + 2 Pan, 2.5 m
Radar Cross Section
11.063 m², Large (>1 m²)

Expand to show TLE details & history
Last TLE update: 12 hours ago

TLE from 12 hours ago
0 YAOGAN-43 02E
1 60949U 24156E   25310.04911162  .00018122  00000-0  75008-3 0  9998
2 60949  34.9952 161.4874 0006049 227.7890 132.2311 15.23068060 65406
Epoch: 2025-11-06T01:10Z
TLE epoch observation values (Epoch: 2025-11-06T01:10:43.243Z)
Latitude
-0.00007°
Longitude
98.29412°
Altitude
498.295 km
Speed
7.616 km/s
True Right ascension
10h 45m 56s
True Declination
0° 00' 00"
Sunlit
Object was in daylight at epoch
Visualization orbit readout
Latitude
Unknown
Longitude
Unknown
Altitude
Unknown
Speed
Unknown
Apparent Right ascension
Unknown
Apparent Declination
Unknown
Sunlit
N/A
Visualization observer readout
Local Sidereal Time
09:16:37
Azimuth
Unknown
Elevation
Unknown
Doppler factor
Unknown
Orbital elements
Apogee altitude
504.004 km
Perigee altitude
495.683 km
Semi-major axis
6,877.981 km
Eccentricity
0.0006
Inclination
34.9952°
RAAN
161.4874°
Arg. of periapsis
227.789°
True anomaly
132.2824°
Mean anomaly
132.2311°
Eccentric anomaly
132.25675°
Mean motion
3.80497 °/min
Orbital period
94.61 mins
BSTAR
0.00075008
Loading maneuver chart data...
Computing Atmospheric mass density...
Loading historical data...
Loading historical data...
Loading historical data...
Loading historical data...
Loading historical data...
Loading historical data...
Loading historical data...

Documentation

Showing up to 5 results
|